Time,TemperatureF,DewpointF,PressureIn,WindDirection,WindDirectionDegrees,WindSpeedMPH,WindSpeedGustMPH,Humidity,HourlyPrecipIn,Conditions,Clouds,dailyrainin,SolarRadiationWatts/m^2,SoftwareType,DateUTC
2013-08-23 00:03:00,74.0,73.0,-100.00,ESE,107,3.0,6.0,97,0.00,,,0.00,0.000000,,2013-08-23 05:03:00,
2013-08-23 00:13:00,74.0,73.0,-100.00,ESE,107,3.0,6.0,97,0.00,,,0.00,0.000000,,2013-08-23 05:13:00,
2013-08-23 00:42:00,73.0,72.0,-100.00,NE,49,0.0,5.0,98,0.00,,,0.00,0.000000,,2013-08-23 05:42:00,
2013-08-23 00:52:00,73.0,72.0,-100.00,NE,49,0.0,5.0,98,0.00,,,0.00,0.000000,,2013-08-23 05:52:00,
2013-08-23 01:02:00,73.0,72.0,-100.00,NE,49,0.0,5.0,98,0.00,,,0.00,0.000000,,2013-08-23 06:02:00,
2013-08-23 01:12:00,73.0,72.0,-100.00,NE,49,0.0,5.0,98,0.00,,,0.00,0.000000,,2013-08-23 06:12:00,
2013-08-23 01:42:00,73.0,72.0,-100.00,NE,38,0.0,4.0,98,0.00,,,0.00,0.000000,,2013-08-23 06:42:00,
2013-08-23 01:52:00,73.0,72.0,-100.00,NE,38,0.0,4.0,98,0.00,,,0.00,0.000000,,2013-08-23 06:52:00,
2013-08-23 02:01:00,73.0,72.0,-100.00,NE,38,0.0,4.0,98,0.00,,,0.00,0.000000,,2013-08-23 07:01:00,
2013-08-23 02:12:00,73.0,72.0,-100.00,NE,38,0.0,4.0,98,0.00,,,0.00,0.000000,,2013-08-23 07:12:00,
2013-08-23 02:42:00,72.0,72.0,-100.00,ENE,66,0.0,5.0,99,0.00,,,0.00,0.000000,,2013-08-23 07:42:00,
2013-08-23 02:52:00,72.0,72.0,-100.00,ENE,66,0.0,5.0,99,0.00,,,0.00,0.000000,,2013-08-23 07:52:00,
2013-08-23 03:02:00,72.0,72.0,-100.00,ENE,66,0.0,5.0,99,0.00,,,0.00,0.000000,,2013-08-23 08:02:00,
2013-08-23 03:13:00,72.0,72.0,-100.00,ENE,66,0.0,5.0,99,0.00,,,0.00,0.000000,,2013-08-23 08:13:00,
2013-08-23 03:42:00,72.0,72.0,-100.00,East,90,0.0,0.0,99,0.00,,,0.00,0.000000,,2013-08-23 08:42:00,
2013-08-23 03:52:00,72.0,72.0,-100.00,East,90,0.0,0.0,99,0.00,,,0.00,0.000000,,2013-08-23 08:52:00,
2013-08-23 04:01:00,72.0,72.0,-100.00,East,90,0.0,0.0,99,0.00,,,0.00,0.000000,,2013-08-23 09:01:00,
2013-08-23 04:12:00,72.0,72.0,-100.00,East,90,0.0,0.0,99,0.00,,,0.00,0.000000,,2013-08-23 09:12:00,
2013-08-23 04:43:00,72.0,72.0,-100.00,ENE,72,0.0,0.0,99,0.00,,,0.00,0.000000,,2013-08-23 09:43:00,
2013-08-23 04:53:00,72.0,72.0,-100.00,ENE,72,0.0,0.0,99,0.00,,,0.00,0.000000,,2013-08-23 09:53:00,
2013-08-23 05:03:00,72.0,72.0,-100.00,ENE,72,0.0,0.0,99,0.00,,,0.00,0.000000,,2013-08-23 10:03:00,
2013-08-23 05:13:00,72.0,72.0,-100.00,ENE,72,0.0,0.0,99,0.00,,,0.00,0.000000,,2013-08-23 10:13:00,
2013-08-23 05:42:00,71.0,71.0,-100.00,NE,34,0.0,0.0,99,0.00,,,0.00,0.000000,,2013-08-23 10:42:00,
2013-08-23 05:53:00,71.0,71.0,-100.00,NE,34,0.0,0.0,99,0.00,,,0.00,0.000000,,2013-08-23 10:53:00,
2013-08-23 06:02:00,71.0,71.0,-100.00,NE,34,0.0,0.0,99,0.00,,,0.00,0.000000,,2013-08-23 11:02:00,
2013-08-23 06:11:00,71.0,71.0,-100.00,NE,34,0.0,0.0,99,0.00,,,0.00,0.000000,,2013-08-23 11:11:00,
2013-08-23 06:42:00,71.0,71.0,-100.00,ENE,66,0.0,0.0,99,0.00,,,0.00,0.000000,,2013-08-23 11:42:00,
2013-08-23 06:53:00,71.0,71.0,-100.00,ENE,66,0.0,0.0,99,0.00,,,0.00,0.000000,,2013-08-23 11:53:00,
2013-08-23 07:01:00,71.0,71.0,-100.00,ENE,66,0.0,0.0,99,0.00,,,0.00,0.000000,,2013-08-23 12:01:00,
2013-08-23 07:11:00,71.0,71.0,-100.00,ENE,66,0.0,0.0,99,0.00,,,0.00,0.000000,,2013-08-23 12:11:00,
2013-08-23 07:42:00,71.0,71.0,-100.00,ENE,68,0.0,0.0,99,0.00,,,0.00,20.000000,,2013-08-23 12:42:00,
2013-08-23 07:52:00,71.0,71.0,-100.00,ENE,68,0.0,0.0,99,0.00,,,0.00,20.000000,,2013-08-23 12:52:00,
2013-08-23 08:02:00,71.0,71.0,-100.00,ENE,68,0.0,0.0,99,0.00,,,0.00,20.000000,,2013-08-23 13:02:00,
2013-08-23 08:12:00,71.0,71.0,-100.00,ENE,68,0.0,0.0,99,0.00,,,0.00,20.000000,,2013-08-23 13:12:00,
2013-08-23 08:53:00,78.0,73.0,-100.00,East,80,3.0,8.0,85,0.00,,,0.00,239.000000,,2013-08-23 13:53:00,
2013-08-23 09:02:00,78.0,73.0,-100.00,East,80,3.0,8.0,85,0.00,,,0.00,239.000000,,2013-08-23 14:02:00,
2013-08-23 09:12:00,78.0,73.0,-100.00,East,80,3.0,8.0,85,0.00,,,0.00,239.000000,,2013-08-23 14:12:00,
2013-08-23 09:42:00,80.0,73.0,-100.00,NE,39,2.0,7.0,79,0.00,,,0.00,375.000000,,2013-08-23 14:42:00,
2013-08-23 09:52:00,80.0,73.0,-100.00,NE,39,2.0,7.0,79,0.00,,,0.00,375.000000,,2013-08-23 14:52:00,
2013-08-23 10:01:00,80.0,73.0,-100.00,NE,39,2.0,7.0,79,0.00,,,0.00,375.000000,,2013-08-23 15:01:00,
2013-08-23 10:11:00,80.0,73.0,-100.00,NE,39,2.0,7.0,79,0.00,,,0.00,375.000000,,2013-08-23 15:11:00,
2013-08-23 10:44:00,82.0,74.0,-100.00,East,83,2.0,8.0,76,0.00,,,-99.99,437.000000,,2013-08-23 15:44:00,
2013-08-23 10:54:00,82.0,74.0,-100.00,East,83,2.0,8.0,76,0.00,,,-99.99,437.000000,,2013-08-23 15:54:00,
2013-08-23 11:05:00,82.0,74.0,-100.00,East,83,2.0,8.0,76,0.00,,,-99.99,437.000000,,2013-08-23 16:05:00,
2013-08-23 11:13:00,82.0,74.0,-100.00,East,83,2.0,8.0,76,0.00,,,-99.99,437.000000,,2013-08-23 16:13:00,
2013-08-23 11:42:00,86.0,73.0,-100.00,ENE,78,2.0,10.0,66,0.00,,,0.00,573.000000,,2013-08-23 16:42:00,
2013-08-23 11:53:00,86.0,73.0,-100.00,ENE,78,2.0,10.0,66,0.00,,,0.00,573.000000,,2013-08-23 16:53:00,
2013-08-23 12:04:00,86.0,73.0,-100.00,ENE,78,2.0,10.0,66,0.00,,,0.00,573.000000,,2013-08-23 17:04:00,
2013-08-23 12:13:00,86.0,73.0,-100.00,ENE,78,2.0,10.0,66,0.00,,,0.00,573.000000,,2013-08-23 17:13:00,
2013-08-23 12:43:00,86.0,73.0,-100.00,ESE,115,3.0,8.0,65,0.00,,,0.00,547.000000,,2013-08-23 17:43:00,
2013-08-23 12:54:00,86.0,73.0,-100.00,ESE,115,3.0,8.0,65,0.00,,,0.00,547.000000,,2013-08-23 17:54:00,
2013-08-23 13:02:00,86.0,73.0,-100.00,ESE,115,3.0,8.0,65,0.00,,,0.00,547.000000,,2013-08-23 18:02:00,
2013-08-23 13:12:00,86.0,73.0,-100.00,ESE,115,3.0,8.0,65,0.00,,,0.00,547.000000,,2013-08-23 18:12:00,
2013-08-23 13:42:00,86.0,72.0,-100.00,East,89,4.0,10.0,63,0.00,,,0.00,537.000000,,2013-08-23 18:42:00,
2013-08-23 13:52:00,86.0,72.0,-100.00,East,89,4.0,10.0,63,0.00,,,0.00,537.000000,,2013-08-23 18:52:00,
2013-08-23 14:02:00,86.0,72.0,-100.00,East,89,4.0,10.0,63,0.00,,,0.00,537.000000,,2013-08-23 19:02:00,
2013-08-23 14:12:00,86.0,72.0,-100.00,East,89,4.0,10.0,63,0.00,,,0.00,537.000000,,2013-08-23 19:12:00,
2013-08-23 14:42:00,88.0,74.0,-100.00,SE,133,4.0,8.0,64,0.00,,,0.00,498.000000,,2013-08-23 19:42:00,
2013-08-23 14:52:00,88.0,74.0,-100.00,SE,133,4.0,8.0,64,0.00,,,0.00,498.000000,,2013-08-23 19:52:00,
2013-08-23 15:02:00,88.0,74.0,-100.00,SE,133,4.0,8.0,64,0.00,,,0.00,498.000000,,2013-08-23 20:02:00,
2013-08-23 15:12:00,88.0,74.0,-100.00,SE,133,4.0,8.0,64,0.00,,,0.00,498.000000,,2013-08-23 20:12:00,
2013-08-23 15:42:00,87.0,75.0,-100.00,SE,129,3.0,9.0,67,0.00,,,0.00,412.000000,,2013-08-23 20:42:00,
2013-08-23 15:52:00,87.0,75.0,-100.00,SE,129,3.0,9.0,67,0.00,,,0.00,412.000000,,2013-08-23 20:52:00,
2013-08-23 16:02:00,87.0,75.0,-100.00,SE,129,3.0,9.0,67,0.00,,,0.00,412.000000,,2013-08-23 21:02:00,
2013-08-23 16:11:00,87.0,75.0,-100.00,SE,129,3.0,9.0,67,0.00,,,0.00,412.000000,,2013-08-23 21:11:00,
2013-08-23 16:44:00,85.0,73.0,-100.00,SE,132,2.0,7.0,68,0.00,,,0.00,273.000000,,2013-08-23 21:44:00,
2013-08-23 16:54:00,85.0,73.0,-100.00,SE,132,2.0,7.0,68,0.00,,,0.00,273.000000,,2013-08-23 21:54:00,
2013-08-23 17:04:00,85.0,73.0,-100.00,SE,132,2.0,7.0,68,0.00,,,0.00,273.000000,,2013-08-23 22:04:00,
2013-08-23 17:13:00,85.0,73.0,-100.00,SE,132,2.0,7.0,68,0.00,,,0.00,273.000000,,2013-08-23 22:13:00,
2013-08-23 17:43:00,84.0,76.0,-100.00,South,183,4.0,6.0,76,0.00,,,0.00,182.000000,,2013-08-23 22:43:00,
2013-08-23 17:53:00,84.0,76.0,-100.00,South,183,4.0,6.0,76,0.00,,,0.00,182.000000,,2013-08-23 22:53:00,
2013-08-23 18:03:00,84.0,76.0,-100.00,South,183,4.0,6.0,76,0.00,,,0.00,182.000000,,2013-08-23 23:03:00,
2013-08-23 18:12:00,84.0,76.0,-100.00,South,183,4.0,6.0,76,0.00,,,0.00,182.000000,,2013-08-23 23:12:00,
2013-08-23 18:43:00,80.0,72.0,-100.00,SSW,192,2.0,11.0,76,0.00,,,0.00,145.000000,,2013-08-23 23:43:00,
2013-08-23 18:54:00,80.0,72.0,-100.00,SSW,192,2.0,11.0,76,0.00,,,0.00,145.000000,,2013-08-23 23:54:00,
2013-08-23 19:02:00,80.0,72.0,-100.00,SSW,192,2.0,11.0,76,0.00,,,0.00,145.000000,,2013-08-24 00:02:00,
2013-08-23 19:11:00,80.0,72.0,-100.00,SSW,192,2.0,11.0,76,0.00,,,0.00,145.000000,,2013-08-24 00:11:00,
2013-08-23 19:43:00,76.0,71.0,-100.00,NE,55,0.0,5.0,85,0.00,,,0.00,30.000000,,2013-08-24 00:43:00,
2013-08-23 19:53:00,76.0,71.0,-100.00,NE,55,0.0,5.0,85,0.00,,,0.00,30.000000,,2013-08-24 00:53:00,
2013-08-23 20:02:00,76.0,71.0,-100.00,NE,55,0.0,5.0,85,0.00,,,0.00,30.000000,,2013-08-24 01:02:00,
2013-08-23 20:11:00,76.0,71.0,-100.00,NE,55,0.0,5.0,85,0.00,,,0.00,30.000000,,2013-08-24 01:11:00,
2013-08-23 20:42:00,75.0,72.0,-100.00,NE,45,1.0,5.0,89,0.00,,,0.00,0.000000,,2013-08-24 01:42:00,
2013-08-23 20:53:00,75.0,72.0,-100.00,NE,45,1.0,5.0,89,0.00,,,0.00,0.000000,,2013-08-24 01:53:00,
2013-08-23 21:03:00,75.0,72.0,-100.00,NE,45,1.0,5.0,89,0.00,,,0.00,0.000000,,2013-08-24 02:03:00,
2013-08-23 21:12:00,75.0,72.0,-100.00,NE,45,1.0,5.0,89,0.00,,,0.00,0.000000,,2013-08-24 02:12:00,
2013-08-23 21:42:00,74.0,72.0,-100.00,ESE,102,0.0,4.0,93,0.00,,,0.00,0.000000,,2013-08-24 02:42:00,
2013-08-23 21:52:00,74.0,72.0,-100.00,ESE,102,0.0,4.0,93,0.00,,,0.00,0.000000,,2013-08-24 02:52:00,
2013-08-23 22:02:00,74.0,72.0,-100.00,ESE,102,0.0,4.0,93,0.00,,,0.00,0.000000,,2013-08-24 03:02:00,
2013-08-23 22:12:00,74.0,72.0,-100.00,ESE,102,0.0,4.0,93,0.00,,,0.00,0.000000,,2013-08-24 03:12:00,
2013-08-23 22:44:00,73.0,71.0,-100.00,East,101,2.0,4.0,94,0.00,,,-99.99,0.000000,,2013-08-24 03:44:00,
2013-08-23 22:55:00,73.0,71.0,-100.00,East,101,2.0,4.0,94,0.00,,,-99.99,0.000000,,2013-08-24 03:55:00,
2013-08-23 23:04:00,73.0,71.0,-100.00,East,101,2.0,4.0,94,0.00,,,-99.99,0.000000,,2013-08-24 04:04:00,
2013-08-23 23:14:00,73.0,71.0,-100.00,East,101,2.0,4.0,94,0.00,,,-99.99,0.000000,,2013-08-24 04:14:00,
2013-08-23 23:44:00,72.0,71.0,-100.00,ENE,73,1.0,4.0,96,0.00,,,0.00,0.000000,,2013-08-24 04:44:00,
2013-08-23 23:54:00,72.0,71.0,-100.00,ENE,73,1.0,4.0,96,0.00,,,0.00,0.000000,,2013-08-24 04:54:00,